Airfield :
LOGIN :

Register | Disclaimer

   EN    FR    IT 

 










Legend :    VFR   Marginal VFR   IFR   Intensive IFR   Very Intensive IFR
Visi :
Ceiling :
>= 8 km
>= 3000ft
5 to 8 km
1000 to 3000 ft
1500m to 5 km
500 to 1000 ft
800 to 1500m
200 to 500 ft
< 800m
< 200 ft
Symbols :   Thunderstorms  Fog  Heavy snow  Heavy precipitations  Wind > 20 kt
SIGMETs :     Misc.  Thunderstorms  Icing  Turbulence  Mountain Waves  Volcanic Ashes







- Airport Elevation : 306 ft
- IATA code : EMA
- Download approach charts


EGNX - Nottingham East Midlands

CURRENT METAR :
  • 262020Z 25008KT CAVOK 08/02 Q1014

EXPIRED METARs :
  • 261950Z 26010KT CAVOK 08/02 Q1013
  • 261920Z 25009KT CAVOK 09/01 Q1013
  • 261850Z 25010KT CAVOK 10/01 Q1013
  • 261820Z 26013KT CAVOK 10/01 Q1013
  • 261750Z 27016KT 9999 FEW025 11/01 Q1013

TAF TAF EGNX
Valid from the 26 at 18:00 until the 27 at 18:00 UTC


261705Z 2618/2718 27018KT CAVOK
BECMG 2618/2621 23008KT
TEMPO 2703/2709 8000 RA BKN040
BECMG 2709/2712 09012KT SCT012 BKN030
TEMPO 2709/2718 6000 RA FEW008 BKN012
BECMG 2715/2718 02014KT
ATIS : +44 1332 852 852 (ext 3201)
No reported NOTAMs for that airfield.



MET'MAP, your aeronautical weather chart ! - Copyright ORBIFLY December 2007 - Disclaimer

ORBIFLY MET'MAP TEAM :

Programming & Development : Alexandra Zaïnal
Concept & Development : Baudouin d'Aumeries
Co-Development & Prog : Marc-Olivier Méhu
Technical & hardware support : Manuel Goepfert

Contact : metmap@orbifly.com




SOURCES & CREDITS :

   NOAA